Location: Albany
(35.0000°S, 118.0000°E)
Time: 11:24:29
(UTC-05:00)

Cosmos 1933 - Visible Passes

Search period start: 21 November 2014 00:00
Search period end: 01 December 2014 00:00
Orbit: 556 x 571 km, 82.5° (Epoch: 20 November)

Date Brightness Start Highest point End Pass type
(mag) Time Alt. Az. Time Alt. Az. Time Alt. Az.
21 Nov 3.5 14:29:21 12° N 14:33:05 74° E 14:37:12 10° S visible
22 Nov 3.3 14:29:40 16° N 14:32:53 87° W 14:37:01 10° S visible
23 Nov 3.3 14:29:55 20° NNW 14:32:42 69° W 14:36:48 10° S visible
24 Nov 3.5 14:30:08 23° NNW 14:32:30 54° W 14:36:33 10° S visible
25 Nov 6.2 12:55:13 10° E 12:56:07 11° E 12:57:02 10° ESE visible
25 Nov 3.8 14:30:18 24° NW 14:32:19 43° W 14:36:15 10° S visible
26 Nov 6.0 12:54:25 12° ENE 12:55:49 13° E 12:57:49 10° ESE visible
26 Nov 4.1 14:30:26 24° NW 14:32:07 34° W 14:35:54 10° SSW visible
27 Nov 5.7 12:54:31 15° ENE 12:55:31 17° E 12:58:08 10° SE visible
27 Nov 4.5 14:30:31 23° WNW 14:31:55 28° WSW 14:35:30 10° SSW visible
28 Nov 5.4 12:54:34 20° ENE 12:55:13 20° E 12:58:16 10° SE visible
28 Nov 4.7 14:30:34 20° WNW 14:31:44 23° WSW 14:35:02 10° SSW visible
29 Nov 5.1 12:54:35 25° E 12:54:55 25° E 12:58:17 10° SE visible
29 Nov 5.0 14:30:35 18° W 14:31:32 19° WSW 14:34:29 10° SSW visible
30 Nov 4.8 12:54:35 31° E 12:54:36 31° E 12:58:14 10° SSE visible
30 Nov 5.2 14:30:35 15° W 14:31:21 15° WSW 14:33:50 10° SW visible
